| time (UTC) | temp C | wind direction | speed KPH | gust KPH | rain 1hr cm | rain 24hr cm | rain mn cm | humidity % | barometer mb |
| 20260510190928 | 18 | 252 | 1.6 | 6.4 | 0.00 | 0.00 | 0.00 | 37 | 1016.0 |
| 20260510190422 | 18 | 28 | 1.6 | 6.4 | 0.00 | 0.00 | 0.00 | 37 | 1016.0 |
| 20260510185917 | 18 | 182 | 1.6 | 6.4 | 0.00 | 0.00 | 0.00 | 41 | 1015.9 |
| 20260510185410 | 18 | 211 | 1.6 | 6.4 | 0.00 | 0.00 | 0.00 | 40 | 1016.0 |
| 20260510184904 | 18 | 350 | 1.6 | 6.4 | 0.00 | 0.00 | 0.00 | 40 | 1015.9 |
| 20260510184400 | 18 | 105 | 1.6 | 8.0 | 0.00 | 0.00 | 0.00 | 39 | 1016.0 |
| 20260510183851 | 18 | 225 | 1.6 | 8.0 | 0.00 | 0.00 | 0.00 | 38 | 1016.0 |
| 20260510183346 | 18 | 199 | 1.6 | 6.4 | 0.00 | 0.00 | 0.00 | 42 | 1015.9 |
| 20260510182840 | 17 | 271 | 1.6 | 6.4 | 0.00 | 0.00 | 0.00 | 38 | 1016.0 |
| 20260510182334 | 17 | 148 | 1.6 | 6.4 | 0.00 | 0.00 | 0.00 | 39 | 1016.1 |
| 20260510181828 | 17 | 198 | 3.2 | 6.4 | 0.00 | 0.00 | 0.00 | 39 | 1016.0 |
| 20260510181322 | 18 | 236 | 1.6 | 9.7 | 0.00 | 0.00 | 0.00 | 41 | 1016.1 |
| 20260510180816 | 18 | 240 | 1.6 | 9.7 | 0.00 | 0.00 | 0.00 | 40 | 1016.0 |
| 20260510180310 | 18 | 164 | 1.6 | 9.7 | 0.00 | 0.00 | 0.00 | 43 | 1015.9 |
| 20260510175804 | 18 | 28 | 1.6 | 9.7 | 0.00 | 0.00 | 0.00 | 45 | 1015.5 |
| 20260510175258 | 18 | 30 | 1.6 | 6.4 | 0.00 | 0.00 | 0.00 | 44 | 1015.5 |
| 20260510174752 | 17 | 63 | 1.6 | 4.8 | 0.00 | 0.00 | 0.00 | 46 | 1015.4 |
| 20260510174247 | 17 | 68 | 1.6 | 4.8 | 0.00 | 0.00 | 0.00 | 41 | 1015.4 |
| 20260510174002 | 17 | 136 | 1.6 | 6.4 | 0.00 | 0.00 | 0.00 | 45 | 1015.6 |
| 20260510173234 | 17 | 321 | 3.2 | 12.9 | 0.00 | 0.00 | 0.00 | 47 | 1015.6 |
| 20260510172959 | 17 | 344 | 3.2 | 12.9 | 0.00 | 0.00 | 0.00 | 47 | 1015.6 |
| 20260510172235 | 17 | 341 | 3.2 | 9.7 | 0.00 | 0.00 | 0.00 | 49 | 1015.5 |
| 20260510171734 | 17 | 26 | 3.2 | 9.7 | 0.00 | 0.00 | 0.00 | 48 | 1015.6 |
| 20260510171234 | 17 | 9 | 3.2 | 9.7 | 0.00 | 0.00 | 0.00 | 48 | 1015.6 |
| 20260510170734 | 17 | 28 | 1.6 | 6.4 | 0.00 | 0.00 | 0.00 | 47 | 1015.6 |
| 20260510170234 | 17 | 186 | 3.2 | 6.4 | 0.00 | 0.00 | 0.00 | 44 | 1015.9 |
| 20260510165734 | 17 | 265 | 3.2 | 8.0 | 0.00 | 0.00 | 0.00 | 46 | 1016.0 |
| 20260510165233 | 18 | 28 | 1.6 | 8.0 | 0.00 | 0.00 | 0.00 | 45 | 1016.0 |
| 20260510164732 | 17 | 259 | 1.6 | 6.4 | 0.00 | 0.00 | 0.00 | 46 | 1016.0 |
| 20260510164232 | 17 | 22 | 1.6 | 4.8 | 0.00 | 0.00 | 0.00 | 48 | 1016.0 |
| 20260510164217 | 17 | 167 | 1.6 | 4.8 | 0.00 | 0.00 | 0.00 | 45 | 1016.0 |
| 20260510163232 | 17 | 98 | 1.6 | 6.4 | 0.00 | 0.00 | 0.00 | 44 | 1015.9 |
| 20260510162731 | 17 | 178 | 1.6 | 6.4 | 0.00 | 0.00 | 0.00 | 41 | 1015.9 |
| 20260510162232 | 17 | 211 | 1.6 | 4.8 | 0.00 | 0.00 | 0.00 | 44 | 1015.9 |
| 20260510161730 | 17 | 11 | 1.6 | 4.8 | 0.00 | 0.00 | 0.00 | 48 | 1015.8 |
| 20260510161230 | 17 | 63 | 3.2 | 8.0 | 0.00 | 0.00 | 0.00 | 46 | 1015.6 |
| 20260510160730 | 17 | 9 | 3.2 | 8.0 | 0.00 | 0.00 | 0.00 | 47 | 1015.5 |
| 20260510160227 | 17 | 55 | 1.6 | 6.4 | 0.00 | 0.00 | 0.00 | 50 | 1015.6 |
| 20260510155727 | 16 | 195 | 1.6 | 6.4 | 0.00 | 0.00 | 0.00 | 48 | 1015.6 |
| 20260510155226 | 16 | 242 | 3.2 | 6.4 | 0.00 | 0.00 | 0.00 | 50 | 1015.5 |
| 20260510154946 | 16 | 303 | 3.2 | 4.8 | 0.00 | 0.00 | 0.00 | 50 | 1015.5 |
| 20260510154227 | 16 | 256 | 3.2 | 9.7 | 0.00 | 0.00 | 0.00 | 50 | 1015.4 |
| 20260510153726 | 16 | 262 | 3.2 | 9.7 | 0.00 | 0.00 | 0.00 | 49 | 1015.3 |
| 20260510153225 | 16 | 331 | 4.8 | 12.9 | 0.00 | 0.00 | 0.00 | 50 | 1015.3 |
| 20260510152727 | 16 | 5 | 3.2 | 12.9 | 0.00 | 0.00 | 0.00 | 52 | 1015.1 |
| 20260510152226 | 16 | 63 | 1.6 | 4.8 | 0.00 | 0.00 | 0.00 | 52 | 1015.2 |
| 20260510151722 | 16 | 30 | 1.6 | 4.8 | 0.00 | 0.00 | 0.00 | 53 | 1015.2 |
| 20260510151222 | 15 | 248 | 3.2 | 9.7 | 0.00 | 0.00 | 0.00 | 52 | 1015.1 |
| 20260510150722 | 15 | 355 | 3.2 | 9.7 | 0.00 | 0.00 | 0.00 | 54 | 1015.1 |
| 20260510150222 | 15 | 58 | 3.2 | 8.0 | 0.00 | 0.00 | 0.00 | 53 | 1015.0 |
| 20260510145722 | 15 | 0 | 3.2 | 8.0 | 0.00 | 0.00 | 0.00 | 53 | 1014.9 |
| 20260510145222 | 15 | 344 | 3.2 | 6.4 | 0.00 | 0.00 | 0.00 | 53 | 1015.0 |
| 20260510144721 | 15 | 51 | 3.2 | 8.0 | 0.00 | 0.00 | 0.00 | 53 | 1014.9 |
| 20260510144222 | 14 | 15 | 3.2 | 8.0 | 0.00 | 0.00 | 0.00 | 54 | 1014.7 |
| 20260510143947 | 15 | 12 | 3.2 | 9.7 | 0.00 | 0.00 | 0.00 | 53 | 1014.7 |
| 20260510143215 | 14 | 9 | 3.2 | 9.7 | 0.00 | 0.00 | 0.00 | 54 | 1014.6 |
| 20260510142709 | 14 | 14 | 3.2 | 11.3 | 0.00 | 0.00 | 0.00 | 57 | 1014.5 |
| 20260510142203 | 13 | 34 | 4.8 | 11.3 | 0.00 | 0.00 | 0.00 | 57 | 1014.5 |
| 20260510141922 | 13 | 355 | 3.2 | 8.0 | 0.00 | 0.00 | 0.00 | 56 | 1014.3 |
| 20260510141151 | 13 | 27 | 3.2 | 6.4 | 0.00 | 0.00 | 0.00 | 58 | 1014.5 |
| 20260510140907 | 13 | 347 | 3.2 | 11.3 | 0.00 | 0.00 | 0.00 | 57 | 1014.3 |
| 20260510140139 | 13 | 355 | 3.2 | 12.9 | 0.00 | 0.00 | 0.00 | 58 | 1014.2 |
| 20260510135903 | 12 | 0 | 3.2 | 12.9 | 0.00 | 0.00 | 0.00 | 61 | 1014.1 |
| 20260510135127 | 12 | 78 | 3.2 | 9.7 | 0.00 | 0.00 | 0.00 | 63 | 1014.0 |
| 20260510134621 | 12 | 0 | 1.6 | 8.0 | 0.00 | 0.00 | 0.00 | 65 | 1014.1 |
| 20260510134115 | 11 | 5 | 1.6 | 8.0 | 0.00 | 0.00 | 0.00 | 67 | 1014.1 |
| 20260510133609 | 11 | 355 | 3.2 | 6.4 | 0.00 | 0.00 | 0.00 | 68 | 1014.2 |
| 20260510133102 | 11 | 355 | 3.2 | 6.4 | 0.00 | 0.00 | 0.00 | 67 | 1014.1 |
| 20260510132556 | 10 | 12 | 3.2 | 8.0 | 0.00 | 0.00 | 0.00 | 67 | 1014.0 |
| 20260510132052 | 10 | 339 | 3.2 | 8.0 | 0.00 | 0.00 | 0.00 | 69 | 1014.0 |
| 20260510131545 | 10 | 28 | 3.2 | 6.4 | 0.00 | 0.00 | 0.00 | 68 | 1013.9 |
| 20260510131039 | 10 | 5 | 1.6 | 6.4 | 0.00 | 0.00 | 0.00 | 68 | 1013.9 |
| 20260510130533 | 10 | 338 | 1.6 | 4.8 | 0.00 | 0.00 | 0.00 | 70 | 1013.9 |
| 20260510130027 | 10 | 22 | 1.6 | 4.8 | 0.00 | 0.00 | 0.00 | 67 | 1013.9 |
| 20260510125521 | 10 | 348 | 1.6 | 4.8 | 0.00 | 0.00 | 0.00 | 70 | 1013.9 |
| 20260510125014 | 10 | 355 | 3.2 | 4.8 | 0.00 | 0.00 | 0.00 | 70 | 1013.8 |
| 20260510124509 | 10 | 5 | 1.6 | 4.8 | 0.00 | 0.00 | 0.00 | 69 | 1013.8 |
| 20260510124221 | 10 | 17 | 1.6 | 4.8 | 0.00 | 0.00 | 0.00 | 71 | 1013.6 |
| 20260510123457 | 10 | 9 | 1.6 | 4.8 | 0.00 | 0.00 | 0.00 | 71 | 1013.5 |
| 20260510122951 | 10 | 9 | 1.6 | 3.2 | 0.00 | 0.00 | 0.00 | 71 | 1013.6 |
| 20260510122708 | 10 | 10 | 1.6 | 3.2 | 0.00 | 0.00 | 0.00 | 72 | 1013.4 |
| 20260510121939 | 9 | 13 | 1.6 | 3.2 | 0.00 | 0.00 | 0.00 | 72 | 1013.4 |
| 20260510121433 | 9 | 11 | 0.0 | 3.2 | 0.00 | 0.00 | 0.00 | 73 | 1013.4 |
| 20260510121155 | 9 | 17 | 0.0 | 3.2 | 0.00 | 0.00 | 0.00 | 76 | 1013.4 |
| 20260510120421 | 9 | 17 | 0.0 | 3.2 | 0.00 | 0.00 | 0.00 | 74 | 1013.3 |
| 20260510115915 | 9 | 17 | 0.0 | 3.2 | 0.00 | 0.00 | 0.00 | 73 | 1013.3 |
| 20260510115854 | 9 | 17 | 0.0 | 3.2 | 0.00 | 0.00 | 0.00 | 73 | 1013.0 |
| 20260510114913 | 9 | 17 | 0.0 | 3.2 | 0.00 | 0.00 | 0.00 | 76 | 1012.7 |
| 20260510114411 | 9 | 0 | 0.0 | 1.6 | 0.00 | 0.00 | 0.00 | 78 | 1012.5 |
| 20260510113910 | 9 | 0 | 0.0 | 0.0 | 0.00 | 0.00 | 0.00 | 78 | 1012.7 |
| 20260510113636 | 8 | 0 | 0.0 | 1.6 | 0.00 | 0.00 | 0.00 | 77 | 1012.7 |
| 20260510113130 | 8 | 0 | 0.0 | 1.6 | 0.00 | 0.00 | 0.00 | 75 | 1012.6 |
| 20260510112408 | 8 | 0 | 0.0 | 1.6 | 0.00 | 0.03 | 0.00 | 75 | 1012.4 |
| 20260510112133 | 8 | 0 | 0.0 | 3.2 | 0.00 | 0.03 | 0.00 | 74 | 1012.2 |
| 20260510111403 | 9 | 0 | 0.0 | 3.2 | 0.00 | 0.03 | 0.00 | 74 | 1011.9 |
| 20260510110904 | 9 | 0 | 0.0 | 3.2 | 0.00 | 0.03 | 0.00 | 75 | 1011.9 |
| 20260510110611 | 9 | 0 | 0.0 | 3.2 | 0.00 | 0.03 | 0.00 | 77 | 1011.9 |
| 20260510110457 | 9 | 0 | 0.0 | 3.2 | 0.00 | 0.03 | 0.00 | 76 | 1011.9 |
| 20260510105359 | 9 | 0 | 0.0 | 3.2 | 0.00 | 0.05 | 0.00 | 74 | 1011.9 |
| 20260510104857 | 10 | 0 | 0.0 | 3.2 | 0.00 | 0.05 | 0.00 | 72 | 1011.9 |
| 20260510104616 | 10 | 0 | 0.0 | 3.2 | 0.00 | 0.05 | 0.00 | 71 | 1011.8 |
| 20260510103853 | 10 | 0 | 0.0 | 3.2 | 0.00 | 0.05 | 0.00 | 70 | 1011.4 |
| 20260510103351 | 10 | 9 | 0.0 | 3.2 | 0.00 | 0.08 | 0.00 | 69 | 1011.8 |
| 20260510102851 | 10 | 9 | 0.0 | 3.2 | 0.00 | 0.08 | 0.00 | 70 | 1011.8 |
| 20260510102351 | 10 | 0 | 0.0 | 4.8 | 0.00 | 0.08 | 0.00 | 69 | 1011.6 |
| 20260510101850 | 10 | 284 | 0.0 | 4.8 | 0.00 | 0.10 | 0.00 | 67 | 1011.4 |
| 20260510101347 | 10 | 315 | 0.0 | 3.2 | 0.00 | 0.10 | 0.00 | 69 | 1011.2 |
| 20260510100841 | 10 | 338 | 0.0 | 3.2 | 0.00 | 0.10 | 0.00 | 70 | 1011.1 |
| 20260510100335 | 10 | 51 | 0.0 | 3.2 | 0.00 | 0.13 | 0.00 | 70 | 1010.8 |
| 20260510095829 | 10 | 51 | 0.0 | 4.8 | 0.00 | 0.13 | 0.00 | 69 | 1010.5 |
| 20260510095323 | 10 | 72 | 1.6 | 4.8 | 0.00 | 0.15 | 0.00 | 67 | 1010.5 |
| 20260510095045 | 10 | 355 | 1.6 | 4.8 | 0.00 | 0.15 | 0.00 | 66 | 1010.5 |
| 20260510094530 | 10 | 355 | 1.6 | 4.8 | 0.00 | 0.15 | 0.00 | 69 | 1010.4 |
| 20260510093805 | 11 | 343 | 1.6 | 6.4 | 0.00 | 0.15 | 0.00 | 70 | 1010.2 |
| 20260510093504 | 11 | 22 | 1.6 | 3.2 | 0.00 | 0.18 | 0.00 | 72 | 1010.0 |
| 20260510093352 | 11 | 23 | 1.6 | 6.4 | 0.00 | 0.15 | 0.00 | 71 | 1010.2 |
| 20260510092521 | 11 | 30 | 1.6 | 4.8 | 0.00 | 0.18 | 0.00 | 73 | 1009.9 |
| 20260510091757 | 11 | 355 | 1.6 | 4.8 | 0.00 | 0.18 | 0.00 | 75 | 1009.8 |
| 20260510091257 | 11 | 355 | 1.6 | 4.8 | 0.00 | 0.20 | 0.00 | 75 | 1009.8 |
| 20260510090755 | 11 | 329 | 1.6 | 4.8 | 0.00 | 0.20 | 0.00 | 76 | 1009.8 |
| 20260510090255 | 11 | 342 | 1.6 | 4.8 | 0.00 | 0.23 | 0.00 | 76 | 1009.6 |
| 20260510085755 | 11 | 308 | 1.6 | 12.9 | 0.00 | 0.23 | 0.00 | 76 | 1009.7 |
| 20260510085515 | 12 | 342 | 1.6 | 12.9 | 0.00 | 0.25 | 0.00 | 76 | 1009.4 |
| 20260510084755 | 12 | 44 | 1.6 | 4.8 | 0.00 | 0.25 | 0.00 | 76 | 1009.3 |
| 20260510084512 | 12 | 346 | 1.6 | 3.2 | 0.00 | 0.28 | 0.00 | 76 | 1009.3 |
| 20260510084015 | 12 | 40 | 1.6 | 3.2 | 0.00 | 0.30 | 0.00 | 76 | 1009.2 |
| 20260510083510 | 12 | 261 | 1.6 | 3.2 | 0.00 | 0.30 | 0.00 | 75 | 1009.2 |
| 20260510082749 | 12 | 319 | 1.6 | 4.8 | 0.00 | 0.33 | 0.00 | 76 | 1009.2 |
| 20260510082247 | 12 | 265 | 1.6 | 4.8 | 0.00 | 0.36 | 0.00 | 75 | 1009.2 |
| 20260510081747 | 12 | 229 | 0.0 | 3.2 | 0.00 | 0.36 | 0.00 | 77 | 1009.0 |
| 20260510081247 | 12 | 286 | 0.0 | 3.2 | 0.00 | 0.38 | 0.00 | 76 | 1009.0 |
| 20260510080747 | 12 | 238 | 0.0 | 3.2 | 0.00 | 0.41 | 0.00 | 77 | 1009.1 |
| 20260510080247 | 12 | 190 | 0.0 | 4.8 | 0.00 | 0.43 | 0.00 | 79 | 1009.0 |
| 20260510075747 | 13 | 163 | 0.0 | 4.8 | 0.00 | 0.43 | 0.00 | 79 | 1008.9 |
| 20260510075726 | 13 | 167 | 0.0 | 3.2 | 0.00 | 0.46 | 0.00 | 78 | 1008.8 |
| 20260510074746 | 13 | 167 | 0.0 | 3.2 | 0.00 | 0.48 | 0.00 | 77 | 1008.8 |
| 20260510074247 | 13 | 175 | 0.0 | 3.2 | 0.00 | 0.51 | 0.00 | 77 | 1008.8 |
| 20260510073747 | 13 | 168 | 1.6 | 3.2 | 0.00 | 0.53 | 0.00 | 77 | 1008.9 |
| 20260510073247 | 13 | 188 | 0.0 | 3.2 | 0.00 | 0.56 | 0.00 | 76 | 1008.8 |
| 20260510072747 | 14 | 190 | 0.0 | 4.8 | 0.00 | 0.56 | 0.00 | 76 | 1008.8 |
| 20260510072247 | 14 | 189 | 1.6 | 4.8 | 0.00 | 0.58 | 0.00 | 75 | 1008.7 |
| 20260510071746 | 14 | 180 | 3.2 | 4.8 | 0.00 | 0.61 | 0.00 | 74 | 1008.7 |
| 20260510071247 | 14 | 186 | 3.2 | 6.4 | 0.00 | 0.64 | 0.00 | 74 | 1008.6 |
| 20260510070747 | 15 | 180 | 4.8 | 8.0 | 0.00 | 0.64 | 0.00 | 74 | 1008.6 |
| 20260510070512 | 15 | 180 | 6.4 | 11.3 | 0.00 | 0.66 | 0.00 | 73 | 1008.6 |
| 20260510065747 | 15 | 184 | 4.8 | 11.3 | 0.00 | 0.66 | 0.00 | 73 | 1008.6 |
| 20260510065247 | 15 | 186 | 4.8 | 9.7 | 0.00 | 0.66 | 0.00 | 74 | 1008.5 |
| 20260510064745 | 15 | 177 | 6.4 | 9.7 | 0.00 | 0.69 | 0.00 | 74 | 1008.7 |
| 20260510064725 | 15 | 175 | 4.8 | 9.7 | 0.00 | 0.69 | 0.00 | 74 | 1008.6 |
| 20260510064001 | 15 | 190 | 4.8 | 8.0 | 0.00 | 0.69 | 0.00 | 75 | 1008.6 |
| 20260510063232 | 14 | 171 | 4.8 | 8.0 | 0.00 | 0.71 | 0.00 | 76 | 1008.7 |
| 20260510062726 | 13 | 187 | 3.2 | 6.4 | 0.00 | 0.71 | 0.00 | 78 | 1008.7 |
| 20260510062444 | 14 | 171 | 4.8 | 6.4 | 0.00 | 0.71 | 0.00 | 77 | 1008.8 |
| 20260510061714 | 14 | 169 | 4.8 | 8.0 | 0.00 | 0.71 | 0.00 | 77 | 1008.7 |
| 20260510061208 | 14 | 166 | 4.8 | 8.0 | 0.00 | 0.71 | 0.00 | 76 | 1008.6 |
| 20260510060929 | 15 | 169 | 4.8 | 6.4 | 0.00 | 0.71 | 0.00 | 76 | 1008.6 |
| 20260510060156 | 14 | 167 | 4.8 | 6.4 | 0.00 | 0.74 | 0.00 | 76 | 1008.6 |
| 20260510055650 | 14 | 165 | 3.2 | 6.4 | 0.00 | 0.74 | 0.00 | 76 | 1008.5 |
| 20260510055144 | 14 | 166 | 3.2 | 4.8 | 0.00 | 0.74 | 0.00 | 76 | 1008.5 |
| 20260510054638 | 14 | 166 | 1.6 | 4.8 | 0.00 | 0.76 | 0.00 | 76 | 1008.4 |
| 20260510054133 | 13 | 166 | 1.6 | 4.8 | 0.00 | 0.79 | 0.00 | 76 | 1008.4 |
| 20260510053626 | 14 | 171 | 1.6 | 4.8 | 0.00 | 0.79 | 0.00 | 76 | 1008.4 |
| 20260510053120 | 13 | 167 | 1.6 | 4.8 | 0.00 | 0.81 | 0.00 | 77 | 1008.4 |
| 20260510052833 | 13 | 167 | 0.0 | 3.2 | 0.00 | 0.81 | 0.00 | 76 | 1008.4 |
| 20260510052108 | 14 | 167 | 0.0 | 4.8 | 0.00 | 0.84 | 0.00 | 75 | 1008.3 |
| 20260510051602 | 15 | 167 | 1.6 | 4.8 | 0.00 | 0.84 | 0.00 | 74 | 1008.3 |
| 20260510051323 | 15 | 167 | 3.2 | 6.4 | 0.00 | 0.84 | 0.00 | 72 | 1008.2 |
| 20260510050550 | 15 | 167 | 3.2 | 6.4 | 0.00 | 0.84 | 0.00 | 72 | 1008.2 |
| 20260510050044 | 15 | 170 | 3.2 | 6.4 | 0.00 | 0.84 | 0.00 | 71 | 1008.2 |
| 20260510045538 | 15 | 187 | 1.6 | 6.4 | 0.00 | 0.84 | 0.00 | 70 | 1008.3 |
| 20260510045032 | 15 | 189 | 1.6 | 6.4 | 0.00 | 0.84 | 0.00 | 71 | 1008.3 |
| 20260510044527 | 15 | 171 | 1.6 | 6.4 | 0.00 | 0.84 | 0.00 | 72 | 1008.2 |
| 20260510044020 | 15 | 173 | 1.6 | 4.8 | 0.00 | 0.84 | 0.00 | 73 | 1008.0 |
| 20260510043735 | 15 | 48 | 1.6 | 4.8 | 0.00 | 0.84 | 0.00 | 75 | 1008.2 |
| 20260510043008 | 15 | 261 | 1.6 | 4.8 | 0.00 | 0.84 | 0.00 | 73 | 1008.4 |
| 20260510042507 | 15 | 168 | 1.6 | 3.2 | 0.00 | 0.84 | 0.00 | 73 | 1008.0 |
| 20260510041956 | 15 | 168 | 3.2 | 3.2 | 0.00 | 0.84 | 0.00 | 73 | 1007.9 |
| 20260510041450 | 15 | 168 | 1.6 | 3.2 | 0.00 | 0.84 | 0.00 | 74 | 1007.8 |
| 20260510040943 | 15 | 169 | 1.6 | 3.2 | 0.00 | 0.84 | 0.00 | 75 | 1007.7 |
| 20260510040659 | 15 | 177 | 1.6 | 3.2 | 0.00 | 0.84 | 0.00 | 74 | 1007.7 |
| 20260510035934 | 15 | 180 | 1.6 | 3.2 | 0.00 | 0.84 | 0.84 | 74 | 1007.6 |
| 20260510035427 | 15 | 180 | 1.6 | 1.6 | 0.00 | 0.84 | 0.84 | 73 | 1007.6 |
| 20260510034921 | 15 | 180 | 1.6 | 3.2 | 0.00 | 0.84 | 0.84 | 73 | 1007.6 |
| 20260510034415 | 15 | 180 | 1.6 | 3.2 | 0.00 | 0.86 | 0.84 | 72 | 1007.5 |
| 20260510033909 | 15 | 162 | 1.6 | 3.2 | 0.00 | 0.86 | 0.84 | 72 | 1007.5 |
| 20260510033403 | 15 | 158 | 1.6 | 3.2 | 0.00 | 0.86 | 0.84 | 71 | 1007.5 |
| 20260510032857 | 15 | 158 | 3.2 | 3.2 | 0.00 | 0.86 | 0.84 | 70 | 1007.4 |
| 20260510032351 | 15 | 158 | 3.2 | 3.2 | 0.00 | 0.86 | 0.84 | 70 | 1007.5 |
| 20260510031845 | 15 | 158 | 3.2 | 3.2 | 0.00 | 0.89 | 0.84 | 71 | 1007.5 |
| 20260510031339 | 16 | 158 | 3.2 | 6.4 | 0.00 | 0.89 | 0.84 | 70 | 1007.4 |
| 20260510030833 | 16 | 159 | 3.2 | 6.4 | 0.00 | 0.89 | 0.84 | 70 | 1007.4 |
| 20260510030327 | 16 | 161 | 3.2 | 6.4 | 0.00 | 0.89 | 0.84 | 70 | 1007.5 |
| 20260510025820 | 16 | 163 | 3.2 | 4.8 | 0.00 | 0.91 | 0.84 | 69 | 1007.4 |
| 20260510025314 | 16 | 163 | 3.2 | 6.4 | 0.00 | 0.91 | 0.84 | 69 | 1007.4 |
| 20260510024808 | 16 | 157 | 3.2 | 6.4 | 0.00 | 0.91 | 0.84 | 69 | 1007.4 |
| 20260510024303 | 16 | 159 | 3.2 | 3.2 | 0.00 | 0.91 | 0.84 | 69 | 1007.4 |
| 20260510023757 | 16 | 162 | 3.2 | 6.4 | 0.00 | 0.91 | 0.84 | 69 | 1007.4 |
| 20260510023251 | 16 | 162 | 3.2 | 6.4 | 0.00 | 0.91 | 0.84 | 68 | 1007.3 |
| 20260510023012 | 16 | 161 | 3.2 | 6.4 | 0.00 | 0.91 | 0.84 | 68 | 1007.1 |
| 20260510022502 | 16 | 160 | 3.2 | 6.4 | 0.00 | 0.91 | 0.84 | 68 | 1007.0 |
| 20260510021733 | 16 | 160 | 3.2 | 4.8 | 0.00 | 0.91 | 0.84 | 67 | 1007.0 |
| 20260510021228 | 16 | 157 | 3.2 | 6.4 | 0.00 | 0.91 | 0.84 | 67 | 1006.8 |
| 20260510020721 | 16 | 157 | 3.2 | 6.4 | 0.00 | 0.91 | 0.84 | 67 | 1006.8 |
| 20260510020215 | 16 | 159 | 3.2 | 6.4 | 0.00 | 0.91 | 0.84 | 66 | 1006.8 |
| 20260510015709 | 17 | 157 | 3.2 | 4.8 | 0.00 | 0.91 | 0.84 | 65 | 1006.7 |
| 20260510015203 | 17 | 157 | 3.2 | 4.8 | 0.00 | 0.91 | 0.84 | 65 | 1006.6 |
| 20260510014657 | 17 | 157 | 3.2 | 4.8 | 0.00 | 0.91 | 0.84 | 64 | 1006.5 |
| 20260510014150 | 17 | 155 | 3.2 | 6.4 | 0.00 | 0.91 | 0.84 | 64 | 1006.5 |
| 20260510013644 | 17 | 154 | 3.2 | 6.4 | 0.00 | 0.91 | 0.84 | 63 | 1006.3 |
| 20260510013138 | 17 | 163 | 4.8 | 8.0 | 0.00 | 0.91 | 0.84 | 63 | 1006.3 |
| 20260510012633 | 17 | 155 | 4.8 | 8.0 | 0.00 | 0.91 | 0.84 | 64 | 1006.2 |
| 20260510012127 | 17 | 159 | 4.8 | 8.0 | 0.00 | 0.91 | 0.84 | 63 | 1006.2 |
| 20260510011621 | 17 | 157 | 4.8 | 8.0 | 0.00 | 0.91 | 0.84 | 62 | 1006.1 |
| 20260510011115 | 17 | 157 | 6.4 | 8.0 | 0.00 | 0.91 | 0.84 | 62 | 1006.0 |
| 20260510010609 | 17 | 160 | 6.4 | 8.0 | 0.00 | 0.94 | 0.84 | 62 | 1006.0 |
| 20260510005557 | 18 | 157 | 6.4 | 8.0 | 0.00 | 0.94 | 0.84 | 60 | 1005.9 |
| 20260510005051 | 18 | 159 | 6.4 | 8.0 | 0.00 | 0.94 | 0.84 | 61 | 1005.8 |
| 20260510004545 | 18 | 158 | 6.4 | 8.0 | 0.00 | 0.94 | 0.84 | 60 | 1005.8 |
| 20260510004039 | 18 | 157 | 6.4 | 8.0 | 0.00 | 0.94 | 0.84 | 60 | 1005.7 |
| 20260510003534 | 18 | 153 | 6.4 | 8.0 | 0.00 | 0.94 | 0.84 | 60 | 1005.7 |
| 20260510003027 | 18 | 160 | 6.4 | 9.7 | 0.00 | 0.94 | 0.84 | 60 | 1005.7 |
| 20260510003002 | 18 | 157 | 6.4 | 9.7 | 0.00 | 0.94 | 0.84 | 60 | 1005.6 |
| 20260510002015 | 18 | 163 | 6.4 | 9.7 | 0.00 | 0.94 | 0.84 | 59 | 1005.6 |
| 20260510001509 | 18 | 161 | 8.0 | 9.7 | 0.00 | 0.94 | 0.84 | 59 | 1005.5 |
| 20260510001003 | 18 | 161 | 9.7 | 16.1 | 0.00 | 0.94 | 0.84 | 57 | 1005.4 |
| 20260510000457 | 18 | 153 | 9.7 | 16.1 | 0.00 | 0.97 | 0.84 | 57 | 1005.4 |
| 20260509235951 | 18 | 155 | 8.0 | 11.3 | 0.00 | 0.97 | 0.84 | 60 | 1005.3 |
| 20260509235445 | 18 | 161 | 8.0 | 11.3 | 0.00 | 0.97 | 0.84 | 58 | 1005.3 |
| 20260509235202 | 18 | 159 | 8.0 | 11.3 | 0.00 | 0.97 | 0.84 | 57 | 1005.4 |
| 20260509234657 | 18 | 153 | 8.0 | 11.3 | 0.00 | 0.97 | 0.84 | 57 | 1005.2 |
| 20260509233937 | 18 | 159 | 8.0 | 11.3 | 0.00 | 0.97 | 0.84 | 58 | 1005.3 |
| 20260509233437 | 18 | 162 | 8.0 | 12.9 | 0.00 | 0.99 | 0.84 | 58 | 1005.3 |
| 20260509233145 | 18 | 156 | 8.0 | 11.3 | 0.00 | 0.99 | 0.84 | 58 | 1005.2 |
| 20260509233029 | 18 | 148 | 8.0 | 12.9 | 0.00 | 0.99 | 0.84 | 58 | 1005.2 |
| 20260509231937 | 18 | 157 | 8.0 | 11.3 | 0.00 | 0.99 | 0.84 | 58 | 1005.2 |
| 20260509231437 | 19 | 161 | 9.7 | 14.5 | 0.00 | 0.99 | 0.84 | 57 | 1005.1 |
| 20260509231156 | 19 | 169 | 9.7 | 14.5 | 0.00 | 0.99 | 0.84 | 56 | 1005.1 |
| 20260509230437 | 19 | 159 | 6.4 | 12.9 | 0.00 | 0.99 | 0.84 | 58 | 1005.1 |
| 20260509225937 | 19 | 159 | 6.4 | 11.3 | 0.00 | 0.99 | 0.84 | 59 | 1005.1 |
| 20260509225437 | 19 | 148 | 9.7 | 14.5 | 0.00 | 0.99 | 0.84 | 59 | 1005.1 |
| 20260509225159 | 20 | 158 | 9.7 | 14.5 | 0.00 | 0.99 | 0.84 | 54 | 1005.0 |
| 20260509224437 | 20 | 163 | 9.7 | 14.5 | 0.00 | 0.99 | 0.84 | 54 | 1004.9 |
| 20260509223937 | 20 | 166 | 8.0 | 14.5 | 0.00 | 0.99 | 0.84 | 54 | 1004.9 |
| 20260509223437 | 20 | 148 | 9.7 | 16.1 | 0.00 | 0.99 | 0.84 | 53 | 1004.9 |
| 20260509222933 | 20 | 163 | 8.0 | 16.1 | 0.00 | 0.99 | 0.84 | 54 | 1004.9 |
| 20260509222655 | 20 | 158 | 8.0 | 12.9 | 0.00 | 0.99 | 0.84 | 54 | 1005.0 |
| 20260509221933 | 20 | 155 | 9.7 | 12.9 | 0.00 | 0.99 | 0.84 | 56 | 1004.9 |
| 20260509221433 | 20 | 148 | 8.0 | 12.9 | 0.00 | 0.99 | 0.84 | 53 | 1004.9 |
| 20260509220934 | 20 | 165 | 8.0 | 16.1 | 0.00 | 0.99 | 0.84 | 53 | 1004.9 |
| 20260509220433 | 20 | 157 | 9.7 | 16.1 | 0.00 | 0.99 | 0.84 | 53 | 1004.9 |
| 20260509215933 | 20 | 161 | 9.7 | 17.7 | 0.00 | 0.99 | 0.84 | 57 | 1004.9 |
| 20260509215433 | 20 | 150 | 8.0 | 17.7 | 0.00 | 0.99 | 0.84 | 57 | 1005.0 |
| 20260509215151 | 20 | 130 | 6.4 | 11.3 | 0.00 | 0.99 | 0.84 | 57 | 1005.0 |
| 20260509214433 | 20 | 160 | 9.7 | 16.1 | 0.00 | 0.99 | 0.84 | 55 | 1005.0 |
| 20260509214152 | 20 | 154 | 9.7 | 16.1 | 0.00 | 0.99 | 0.84 | 55 | 1005.1 |
| 20260509213433 | 20 | 167 | 9.7 | 12.9 | 0.00 | 0.99 | 0.84 | 55 | 1005.2 |
| 20260509212931 | 20 | 167 | 9.7 | 16.1 | 0.00 | 0.99 | 0.84 | 55 | 1005.3 |
| 20260509212431 | 20 | 140 | 8.0 | 16.1 | 0.00 | 0.99 | 0.84 | 56 | 1005.2 |
| 20260509211931 | 20 | 147 | 8.0 | 12.9 | 0.00 | 0.99 | 0.84 | 56 | 1005.2 |
| 20260509211431 | 20 | 157 | 6.4 | 12.9 | 0.00 | 0.99 | 0.84 | 56 | 1005.2 |
| 20260509210931 | 20 | 159 | 8.0 | 14.5 | 0.00 | 0.99 | 0.84 | 58 | 1005.2 |
| 20260509210430 | 20 | 157 | 8.0 | 14.5 | 0.00 | 0.99 | 0.84 | 58 | 1005.3 |
| 20260509205924 | 20 | 164 | 6.4 | 14.5 | 0.00 | 0.99 | 0.84 | 57 | 1005.3 |
| 20260509205418 | 20 | 151 | 4.8 | 12.9 | 0.00 | 0.99 | 0.84 | 61 | 1005.3 |
| 20260509204912 | 20 | 155 | 4.8 | 12.9 | 0.00 | 0.99 | 0.84 | 59 | 1005.4 |
| 20260509204406 | 20 | 141 | 4.8 | 9.7 | 0.00 | 0.99 | 0.84 | 59 | 1005.3 |
| 20260509203927 | 20 | 157 | 6.4 | 12.9 | 0.00 | 0.99 | 0.84 | 57 | 1005.5 |
| 20260509203900 | 20 | 159 | 4.8 | 11.3 | 0.00 | 0.99 | 0.84 | 60 | 1005.4 |
| 20260509203548 | 19 | 142 | 6.4 | 12.9 | 0.00 | 0.99 | 0.84 | 59 | 1005.5 |
| 20260509202342 | 20 | 141 | 4.8 | 11.3 | 0.00 | 0.99 | 0.84 | 58 | 1005.6 |
| 20260509201836 | 20 | 144 | 4.8 | 12.9 | 0.00 | 0.99 | 0.84 | 58 | 1005.8 |
| 20260509201330 | 20 | 148 | 4.8 | 12.9 | 0.00 | 0.99 | 0.84 | 59 | 1005.7 |
| 20260509200824 | 19 | 142 | 4.8 | 12.9 | 0.00 | 0.99 | 0.84 | 58 | 1005.7 |
| 20260509200318 | 19 | 155 | 4.8 | 12.9 | 0.00 | 0.99 | 0.84 | 59 | 1005.8 |
| 20260509195812 | 20 | 144 | 6.4 | 12.9 | 0.00 | 0.99 | 0.84 | 57 | 1005.7 |
| 20260509195530 | 19 | 162 | 6.4 | 12.9 | 0.00 | 0.99 | 0.84 | 58 | 1005.9 |
| 20260509194800 | 19 | 166 | 8.0 | 14.5 | 0.00 | 0.99 | 0.84 | 57 | 1005.9 |
| 20260509194254 | 19 | 155 | 8.0 | 14.5 | 0.00 | 0.99 | 0.84 | 58 | 1005.9 |
| 20260509193748 | 19 | 165 | 8.0 | 14.5 | 0.00 | 0.99 | 0.84 | 57 | 1005.9 |
| 20260509193242 | 19 | 136 | 9.7 | 14.5 | 0.00 | 0.99 | 0.84 | 58 | 1005.9 |
| 20260509192956 | 19 | 163 | 8.0 | 16.1 | 0.00 | 0.99 | 0.84 | 57 | 1006.1 |
| 20260509192230 | 19 | 165 | 9.7 | 16.1 | 0.00 | 0.99 | 0.84 | 62 | 1006.1 |
| 20260509191726 | 19 | 153 | 8.0 | 16.1 | 0.00 | 0.99 | 0.84 | 61 | 1006.1 |
| 20260509191218 | 18 | 146 | 8.0 | 12.9 | 0.00 | 0.99 | 0.84 | 61 | 1006.1 |